Total_Precipitation_Accumulation
0.59 0.71 0.83 1.03 1.16 1.30 1.45 1.69 1.96 2.09 2.15 2.20 2.18 2.10 2.27 2.39 2.28 2.15 2.21 2.38 2.52 2.67 2.68 2.49 2.35 2.27 2.13 1.90 1.78 1.72 1.61 1.43 1.28 1.28 1.31 1.19 1.03 0.97 0.84 0.71 0.65 0.61 0.56
0.63 0.72 0.82 1.00 1.12 1.29 1.38 1.59 1.87 2.05 2.02 1.98 2.04 2.01 2.05 2.16 2.24 2.19 2.15 2.20 2.41 2.60 2.82 2.72 2.53 2.42 2.33 2.21 1.99 1.84 1.80 1.72 1.51 1.39 1.42 1.45 1.37 1.14 0.94 0.81 0.70 0.66 0.62
0.61 0.69 0.77 0.92 1.08 1.28 1.38 1.41 1.66 2.02 2.08 2.07 2.20 2.23 2.29 2.32 2.32 2.21 2.15 2.16 2.23 2.35 2.44 2.54 2.44 2.45 2.41 2.33 2.20 2.00 1.90 1.91 1.76 1.49 1.55 1.62 1.46 1.16 0.99 0.89 0.80 0.72 0.68
0.61 0.68 0.75 0.90 1.01 1.20 1.46 1.52 1.58 1.87 2.13 2.17 2.17 2.13 2.14 2.12 2.12 2.04 1.95 2.05 2.23 2.31 2.33 2.39 2.41 2.26 2.21 2.17 2.16 2.10 1.98 1.99 1.98 1.74 1.45 1.33 1.27 1.32 1.20 0.98 0.91 0.90 0.82
0.63 0.70 0.77 0.91 1.05 1.21 1.45 1.63 1.68 1.74 1.97 2.06 2.05 2.02 2.01 2.00 2.07 2.06 1.97 1.94 2.09 2.30 2.40 2.35 2.37 2.37 2.23 2.07 2.02 2.05 2.06 2.01 1.95 1.82 1.61 1.37 1.16 1.11 1.26 1.12 0.98 1.03 1.00
0.66 0.72 0.80 0.97 1.14 1.28 1.48 1.67 1.80 1.69 1.77 2.03 2.05 1.92 1.87 1.88 1.97 2.05 2.09 2.06 2.02 2.09 2.22 2.29 2.25 2.24 2.27 2.21 2.04 1.99 2.05 2.01 1.93 1.83 1.70 1.57 1.44 1.23 1.20 1.16 0.95 0.94 0.94
0.64 0.72 0.81 0.97 1.08 1.21 1.38 1.58 1.73 1.72 1.70 1.89 2.02 1.91 1.79 1.78 1.77 1.86 1.93 1.97 1.97 1.94 1.98 2.08 2.11 2.07 2.07 2.13 2.12 2.03 2.00 2.00 1.99 1.90 1.74 1.59 1.46 1.34 1.36 1.40 1.21 1.01 0.89
0.55 0.66 0.76 0.89 1.01 1.05 1.19 1.40 1.61 1.62 1.63 1.79 2.00 2.02 1.87 1.83 1.71 1.71 1.79 1.85 1.81 1.75 1.74 1.81 1.87 1.84 1.80 1.87 2.00 2.00 1.92 1.93 1.97 1.92 1.85 1.75 1.54 1.44 1.49 1.59 1.67 1.51 1.10
0.52 0.60 0.70 0.77 0.84 0.96 1.05 1.19 1.46 1.63 1.62 1.67 1.88 2.10 2.07 1.96 1.83 1.68 1.70 1.77 1.76 1.73 1.73 1.74 1.74 1.68 1.65 1.66 1.71 1.79 1.76 1.78 1.82 1.85 1.87 1.87 1.70 1.57 1.50 1.53 1.74 2.07 1.84
0.54 0.59 0.65 0.69 0.76 0.88 0.97 1.06 1.28 1.53 1.61 1.61 1.72 1.92 2.14 2.08 1.99 1.94 1.75 1.70 1.70 1.73 1.73 1.74 1.74 1.66 1.56 1.59 1.63 1.59 1.55 1.61 1.66 1.70 1.79 1.82 1.73 1.62 1.53 1.56 1.58 1.70 1.93
0.51 0.56 0.59 0.67 0.74 0.83 0.96 1.05 1.16 1.33 1.48 1.50 1.56 1.67 1.87 2.07 2.10 2.02 1.86 1.70 1.66 1.63 1.58 1.59 1.66 1.66 1.56 1.52 1.61 1.59 1.51 1.56 1.58 1.59 1.63 1.65 1.64 1.66 1.57 1.54 1.54 1.51 1.60
0.47 0.53 0.58 0.65 0.70 0.80 0.93 1.01 1.09 1.23 1.37 1.45 1.50 1.56 1.64 1.81 2.04 1.96 1.79 1.63 1.60 1.61 1.58 1.52 1.55 1.59 1.59 1.55 1.57 1.56 1.49 1.47 1.50 1.54 1.54 1.54 1.56 1.61 1.54 1.50 1.45 1.38 1.33
0.47 0.52 0.60 0.62 0.67 0.78 0.86 0.91 1.01 1.13 1.27 1.39 1.49 1.49 1.53 1.63 1.74 1.83 1.76 1.63 1.55 1.55 1.57 1.57 1.54 1.56 1.60 1.60 1.52 1.53 1.49 1.42 1.41 1.43 1.46 1.45 1.54 1.62 1.55 1.51 1.43 1.31 1.22
0.47 0.51 0.58 0.60 0.64 0.72 0.83 0.86 0.97 1.08 1.15 1.28 1.37 1.40 1.40 1.44 1.49 1.58 1.74 1.73 1.63 1.52 1.46 1.46 1.51 1.60 1.75 1.80 1.75 1.75 1.61 1.48 1.42 1.36 1.33 1.36 1.50 1.58 1.63 1.69 1.56 1.45 1.43
0.45 0.51 0.57 0.62 0.67 0.74 0.83 0.89 0.94 0.97 1.01 1.14 1.23 1.32 1.36 1.43 1.46 1.42 1.51 1.70 1.67 1.52 1.43 1.41 1.47 1.57 1.93 2.33 2.33 2.21 1.89 1.58 1.41 1.31 1.29 1.35 1.51 1.59 1.80 1.98 1.88 1.85 1.93
0.47 0.49 0.56 0.61 0.68 0.75 0.86 0.97 0.99 1.00 0.96 1.03 1.15 1.26 1.35 1.48 1.48 1.41 1.45 1.59 1.67 1.61 1.51 1.44 1.45 1.50 1.79 2.52 2.66 2.27 1.78 1.56 1.41 1.34 1.28 1.29 1.45 1.50 1.64 1.86 1.98 2.06 2.20
0.50 0.50 0.55 0.62 0.71 0.77 0.87 1.00 1.02 1.01 0.99 1.01 1.09 1.18 1.26 1.42 1.46 1.44 1.50 1.55 1.62 1.70 1.70 1.54 1.42 1.38 1.58 2.30 2.48 2.19 1.71 1.52 1.42 1.34 1.32 1.32 1.37 1.46 1.42 1.56 1.66 1.71 1.88
0.51 0.51 0.56 0.64 0.68 0.75 0.82 0.90 0.95 0.97 1.04 1.07 1.10 1.17 1.20 1.26 1.39 1.47 1.49 1.51 1.53 1.58 1.65 1.60 1.49 1.38 1.45 2.05 2.26 2.09 1.72 1.56 1.46 1.35 1.32 1.32 1.33 1.43 1.65 1.61 1.56 1.47 1.50
0.54 0.56 0.60 0.64 0.66 0.69 0.77 0.87 0.91 0.94 1.06 1.14 1.15 1.14 1.11 1.16 1.29 1.38 1.46 1.49 1.51 1.46 1.47 1.47 1.47 1.42 1.41 1.80 2.10 1.95 1.62 1.57 1.47 1.35 1.32 1.34 1.32 1.60 1.89 1.79 1.62 1.43 1.34
0.52 0.58 0.61 0.59 0.62 0.68 0.74 0.86 0.92 0.90 1.03 1.12 1.16 1.09 1.01 1.01 1.06 1.17 1.34 1.44 1.46 1.39 1.38 1.40 1.40 1.34 1.29 1.59 1.90 1.91 1.58 1.49 1.42 1.35 1.32 1.47 1.56 1.78 1.91 1.74 1.69 1.78 1.52
0.51 0.54 0.56 0.56 0.65 0.70 0.71 0.82 0.90 0.97 1.02 1.10 1.15 1.06 0.98 0.98 1.00 1.08 1.25 1.38 1.44 1.42 1.35 1.30 1.32 1.27 1.26 1.40 1.63 1.87 1.66 1.49 1.43 1.39 1.33 1.33 1.62 1.73 1.81 1.84 1.76 2.00 1.88
0.43 0.46 0.51 0.55 0.62 0.68 0.73 0.81 0.90 0.98 1.05 1.11 1.11 1.09 1.06 1.02 1.04 1.09 1.22 1.36 1.43 1.48 1.42 1.31 1.29 1.27 1.27 1.37 1.52 1.73 1.77 1.65 1.43 1.32 1.19 1.25 1.55 1.64 1.75 1.75 1.84 1.97 1.90
0.41 0.43 0.49 0.51 0.58 0.66 0.73 0.84 0.92 0.94 1.02 1.08 1.12 1.12 1.13 1.10 1.11 1.15 1.23 1.36 1.43 1.47 1.44 1.34 1.27 1.26 1.21 1.36 1.63 1.57 1.63 1.69 1.47 1.31 1.42 1.49 1.62 1.64 1.55 1.62 1.73 1.72 1.63
0.40 0.42 0.47 0.50 0.59 0.65 0.69 0.79 0.88 0.88 0.90 0.96 1.07 1.08 1.11 1.16 1.21 1.24 1.25 1.33 1.43 1.49 1.39 1.31 1.23 1.17 1.19 1.41 1.59 1.53 1.52 1.62 1.58 1.51 1.58 1.66 1.64 1.54 1.43 1.47 1.48 1.41 1.51
0.45 0.47 0.50 0.52 0.61 0.67 0.72 0.79 0.81 0.81 0.84 0.88 1.01 1.11 1.15 1.19 1.26 1.28 1.29 1.36 1.36 1.51 1.48 1.34 1.25 1.27 1.37 1.55 1.72 1.67 1.60 1.61 1.61 1.69 1.76 1.71 1.61 1.57 1.44 1.32 1.25 1.29 1.46
0.50 0.51 0.53 0.57 0.63 0.70 0.79 0.82 0.78 0.78 0.83 0.89 0.96 1.08 1.17 1.17 1.17 1.19 1.24 1.40 1.43 1.46 1.41 1.35 1.31 1.23 1.40 1.56 1.64 1.74 1.76 1.79 1.87 1.89 1.80 1.58 1.43 1.38 1.33 1.31 1.28 1.22 1.25